FW5156 Weather Reports


Display with metric or nautical units.
time (UTC)temp
F
wind
direction
speed
MPH
gust
MPH
rain 1hr
in
rain 24hr
in
rain mn
in
humidity
%
barometer
mb
20260508080517 50 270 1.0 3.0 0.00 0.00 0.00 66 1014.2
20260508075517 50 0.0 1.0 0.00 0.00 0.00 66 1014.3
20260508074517 50 0.0 3.0 0.00 0.00 0.00 65 1014.3
20260508073517 51 0.0 4.0 0.00 0.00 0.00 65 1014.3
20260508072537 51 248 1.0 5.0 0.00 0.00 0.00 64 1014.4
20260508071517 51 203 1.0 6.0 0.00 0.00 0.00 64 1014.5
20260508070517 51 203 2.0 8.0 0.00 0.00 0.00 64 1014.5
20260508065517 51 225 1.0 4.0 0.00 0.00 0.00 63 1014.7
20260508064517 51 225 1.0 4.0 0.00 0.00 0.00 62 1014.8
20260508063517 51 203 1.0 6.0 0.00 0.00 0.00 62 1014.9
20260508062517 51 225 1.0 7.0 0.00 0.00 0.00 61 1014.9
20260508061517 51 225 2.0 7.0 0.00 0.00 0.00 62 1015.0
20260508060517 51 180 1.0 3.0 0.00 0.00 0.00 63 1015.0
20260508055517 51 203 2.0 8.0 0.00 0.00 0.00 62 1015.0
20260508054537 51 203 2.0 12.0 0.00 0.00 0.00 63 1014.9
20260508053517 50 203 1.0 4.0 0.00 0.00 0.00 64 1014.9
20260508052517 50 203 2.0 7.0 0.00 0.00 0.00 66 1014.8
20260508051537 50 0.0 2.0 0.00 0.00 0.00 68 1014.7
20260508050537 50 225 1.0 6.0 0.00 0.00 0.00 64 1014.9
20260508045517 50 0.0 3.0 0.00 0.00 0.00 64 1015.0
20260508044517 50 248 1.0 5.0 0.00 0.00 0.00 65 1014.9
20260508043517 51 225 1.0 5.0 0.00 0.00 0.00 63 1014.9
20260508042517 51 0.0 3.0 0.00 0.00 0.00 65 1014.9
20260508041517 51 225 1.0 6.0 0.00 0.00 0.00 63 1015.0
20260508040517 51 270 1.0 6.0 0.00 0.00 0.00 65 1014.9
20260508035517 51 225 1.0 5.0 0.00 0.00 0.00 65 1014.9
20260508034517 51 225 1.0 4.0 0.00 0.00 0.00 67 1015.0
20260508033517 51 225 1.0 4.0 0.00 0.00 0.00 67 1014.8
20260508032517 51 0.0 4.0 0.00 0.00 0.00 67 1014.8
20260508031517 51 0.0 2.0 0.00 0.00 0.00 66 1014.9
20260508030517 51 0.0 2.0 0.00 0.00 0.00 67 1014.9
20260508025517 51 0.0 5.0 0.00 0.00 0.00 66 1014.9
20260508024517 51 0.0 3.0 0.00 0.00 0.00 66 1015.0
20260508023517 50 0.0 0.0 0.00 0.00 0.00 67 1014.7
20260508022517 50 0.0 0.0 0.00 0.00 0.00 65 1014.6
20260508021517 50 0.0 0.0 0.00 0.00 0.00 67 1014.4
20260508021017 50 0.0 0.0 0.00 0.00 0.00 67 1014.4
20260508020017 50 0.0 0.0 0.00 0.00 0.00 69 1014.4
20260508015017 50 0.0 0.0 0.00 0.00 0.00 70 1014.2
20260508014017 51 0.0 0.0 0.00 0.00 0.00 70 1014.0
20260508013017 51 0.0 0.0 0.00 0.00 0.00 69 1014.2
20260508012017 52 0.0 0.0 0.00 0.00 0.00 67 1014.1
20260508011017 53 0.0 0.0 0.00 0.00 0.00 65 1014.2
20260508010017 54 338 1.0 5.0 0.00 0.00 0.00 61 1014.2
20260508005017 55 0.0 0.0 0.00 0.00 0.00 60 1014.0
20260508004037 55 0.0 0.0 0.00 0.00 0.00 60 1014.3
20260508003017 56 0.0 0.0 0.00 0.00 0.00 57 1014.2
20260508002017 56 0.0 1.0 0.00 0.00 0.00 50 1014.0
20260508001017 57 0.0 0.0 0.00 0.00 0.00 52 1014.0
20260508000017 57 0.0 0.0 0.00 0.00 0.00 47 1014.0
20260507235017 57 0.0 0.0 0.00 0.00 0.00 46 1013.9
20260507234017 58 0.0 2.0 0.00 0.00 0.00 45 1013.9
20260507233017 58 270 1.0 8.0 0.00 0.00 0.00 45 1014.0
20260507232017 58 0.0 3.0 0.00 0.00 0.00 45 1014.1
20260507231017 58 248 2.0 7.0 0.00 0.00 0.00 42 1014.0
20260507230017 59 270 2.0 8.0 0.00 0.00 0.00 42 1014.0
20260507225017 60 0.0 3.0 0.00 0.00 0.00 43 1014.1
20260507224017 61 203 1.0 7.0 0.00 0.00 0.00 40 1014.1
20260507223017 62 225 1.0 9.0 0.00 0.00 0.00 41 1014.0
20260507222017 61 203 3.0 11.0 0.00 0.00 0.00 41 1014.1
20260507221017 61 315 3.0 9.0 0.00 0.00 0.00 39 1014.2
20260507220017 62 248 1.0 4.0 0.00 0.00 0.00 38 1014.2
20260507215017 62 225 2.0 10.0 0.00 0.00 0.00 38 1014.1
20260507214017 62 225 2.0 7.0 0.00 0.00 0.00 36 1014.0
20260507213017 62 248 1.0 7.0 0.00 0.00 0.00 39 1013.9
20260507212017 62 225 3.0 10.0 0.00 0.00 0.00 37 1013.9
20260507211017 63 270 3.0 10.0 0.00 0.00 0.00 36 1014.2
20260507210017 62 225 1.0 6.0 0.00 0.00 0.00 39 1014.2
20260507205017 62 315 2.0 7.0 0.00 0.00 0.00 39 1014.3
20260507204017 62 45 2.0 7.0 0.00 0.00 0.00 40 1014.4
20260507203017 62 293 3.0 9.0 0.00 0.00 0.00 36 1014.5
20260507202017 62 293 1.0 5.0 0.00 0.00 0.00 39 1014.5
20260507201037 62 248 1.0 5.0 0.00 0.00 0.00 41 1014.7
20260507200017 61 45 1.0 5.0 0.00 0.00 0.00 39 1014.8
20260507195017 61 225 3.0 9.0 0.00 0.00 0.00 40 1014.9
20260507194017 61 315 1.0 7.0 0.00 0.00 0.00 39 1015.0
20260507193017 61 0.0 3.0 0.00 0.00 0.00 42 1015.2
20260507192037 61 45 1.0 3.0 0.00 0.00 0.00 43 1015.3
20260507191017 60 225 2.0 7.0 0.00 0.00 0.00 44 1015.4
20260507190017 61 225 3.0 8.0 0.00 0.00 0.00 39 1015.5
20260507185017 61 0.0 3.0 0.00 0.00 0.00 39 1015.8
20260507184017 60 180 3.0 12.0 0.00 0.00 0.00 38 1015.5
20260507183017 59 315 2.0 9.0 0.00 0.00 0.00 41 1015.6
20260507182017 59 225 2.0 8.0 0.00 0.00 0.00 43 1015.7
20260507181017 59 0.0 4.0 0.00 0.00 0.00 42 1015.7
20260507180017 60 293 1.0 9.0 0.00 0.00 0.00 43 1015.7
20260507175017 59 180 1.0 5.0 0.00 0.00 0.00 41 1015.7
20260507174017 59 248 3.0 9.0 0.00 0.00 0.00 46 1016.2
20260507173017 58 0.0 3.0 0.00 0.00 0.00 41 1016.3
20260507172017 59 293 1.0 4.0 0.00 0.00 0.00 42 1016.3
20260507171017 59 203 3.0 6.0 0.00 0.00 0.00 45 1016.6
20260507170017 58 293 1.0 4.0 0.00 0.00 0.00 47 1016.7
20260507165017 58 338 1.0 5.0 0.00 0.00 0.00 44 1016.8
20260507164037 58 225 1.0 4.0 0.00 0.00 0.00 45 1017.0
20260507163017 57 23 1.0 3.0 0.00 0.00 0.00 50 1017.0
20260507162017 57 248 1.0 4.0 0.00 0.00 0.00 48 1017.1
20260507161017 56 225 2.0 6.0 0.00 0.00 0.00 49 1017.0
20260507160017 56 225 2.0 7.0 0.00 0.00 0.00 48 1017.1
20260507155017 56 68 1.0 5.0 0.00 0.00 0.00 50 1017.1
20260507154037 55 0.0 2.0 0.00 0.00 0.00 50 1017.1
20260507153037 54 248 3.0 6.0 0.00 0.00 0.00 52 1017.2
20260507152017 54 225 2.0 7.0 0.00 0.00 0.00 50 1017.1
20260507151017 54 270 1.0 4.0 0.00 0.00 0.00 50 1017.1
20260507150017 54 0.0 3.0 0.00 0.00 0.00 52 1017.0
20260507145017 54 203 1.0 5.0 0.00 0.00 0.00 51 1017.0
20260507144017 53 0.0 0.0 0.00 0.00 0.00 50 1017.0
20260507143017 53 0.0 0.0 0.00 0.00 0.00 50 1017.1
20260507142017 53 0.0 0.0 0.00 0.00 0.00 51 1017.0
20260507141037 52 0.0 0.0 0.00 0.00 0.00 57 1017.1
20260507140017 51 0.0 0.0 0.00 0.00 0.00 51 1017.0
20260507135017 50 0.0 0.0 0.00 0.00 0.00 57 1017.0
20260507134017 49 0.0 0.0 0.00 0.00 0.00 65 1017.0
20260507133017 48 0.0 0.0 0.00 0.00 0.00 69 1017.0
20260507132017 46 0.0 0.0 0.00 0.00 0.00 72 1017.0
20260507131037 45 0.0 0.0 0.00 0.00 0.00 76 1016.9
20260507130017 43 0.0 0.0 0.00 0.00 0.00 78 1016.8
20260507125037 42 0.0 0.0 0.00 0.00 0.00 82 1016.8
20260507124017 42 0.0 0.0 0.00 0.00 0.00 83 1016.9
20260507123017 41 0.0 0.0 0.00 0.00 0.00 86 1016.8
20260507122102 41 0.0 0.0 0.00 0.00 0.00 87 1016.7
20260507121557 41 0.0 0.0 0.00 0.00 0.00 88 1016.7
20260507120517 41 0.0 0.0 0.00 0.00 0.00 85 1016.6
20260507115517 40 0.0 0.0 0.00 0.00 0.00 85 1016.6
20260507114517 39 0.0 0.0 0.00 0.00 0.00 86 1016.4
20260507113517 39 0.0 0.0 0.00 0.00 0.00 87 1016.5
20260507112517 38 0.0 0.0 0.00 0.00 0.00 87 1016.3
20260507111537 38 0.0 0.0 0.00 0.00 0.00 87 1016.0
20260507110517 38 0.0 0.0 0.00 0.00 0.00 87 1016.2
20260507105517 38 0.0 0.0 0.00 0.00 0.00 88 1016.3
20260507104517 38 0.0 0.0 0.00 0.00 0.00 88 1016.3
20260507103517 38 0.0 0.0 0.00 0.00 0.00 88 1016.3
20260507102517 38 0.0 0.0 0.00 0.00 0.00 89 1016.5
20260507101517 38 0.0 0.0 0.00 0.00 0.00 88 1016.5
20260507100517 38 0.0 0.0 0.00 0.00 0.00 88 1016.3
20260507095517 38 0.0 0.0 0.00 0.00 0.00 88 1016.3
20260507094517 38 0.0 0.0 0.00 0.00 0.00 88 1016.1
20260507093517 38 0.0 0.0 0.00 0.00 0.00 88 1016.2
20260507092517 39 0.0 0.0 0.00 0.00 0.00 88 1016.1
20260507091517 38 0.0 0.0 0.00 0.00 0.00 88 1016.0
20260507090517 39 0.0 0.0 0.00 0.00 0.00 88 1016.0
20260507085517 38 0.0 0.0 0.00 0.00 0.00 88 1016.1
20260507084517 39 0.0 0.0 0.00 0.00 0.00 88 1016.2
20260507083517 39 0.0 0.0 0.00 0.00 0.00 88 1016.1
20260507082517 39 0.0 0.0 0.00 0.00 0.00 89 1015.9
20260507081537 39 0.0 0.0 0.00 0.00 0.00 89 1015.9